KE0MVE Weather Reports


Display with metric or nautical units.
time (UTC)temp
F
wind
direction
speed
MPH
gust
MPH
rain 1hr
in
rain 24hr
in
rain mn
in
humidity
%
barometer
mb
20240420094503 30 311 3.0 11.0 0.00 0.00 0.00 71 1023.7
20240420093004 30 53 2.0 6.0 0.00 0.00 0.00 76 1024.0
20240420091601 31 309 2.0 7.0 0.00 0.00 0.00 80 1023.6
20240420090059 31 310 2.0 7.0 0.00 0.00 0.00 80 1023.5
20240420084556 31 322 2.0 10.0 0.00 0.00 0.00 79 1023.7
20240420083054 31 320 2.0 7.0 0.00 0.00 0.00 83 1023.1
20240420081551 31 278 2.0 6.0 0.00 0.00 0.00 76 1023.2
20240420080053 32 309 2.0 7.0 0.00 0.00 0.00 72 1022.9
20240420074552 32 304 2.0 6.0 0.00 0.00 0.00 71 1022.8
20240420073048 32 309 2.0 11.0 0.00 0.00 0.00 72 1022.8
20240420071555 32 343 5.0 9.0 0.00 0.00 0.00 71 1022.8
20240420070052 33 313 3.0 10.0 0.00 0.00 0.00 71 1022.9
20240420064540 33 302 2.0 7.0 0.00 0.00 0.00 71 1022.7
20240420063045 33 325 3.0 7.0 0.00 0.00 0.00 70 1022.7
20240420061553 33 316 2.0 10.0 0.00 0.00 0.00 68 1022.9
20240420060036 33 254 3.0 6.0 0.00 0.00 0.00 69 1022.7
20240420054536 33 39 1.0 8.0 0.00 0.00 0.00 68 1022.9
20240420053034 33 321 3.0 10.0 0.00 0.00 0.00 67 1022.7
20240420051531 33 291 3.0 8.0 0.00 0.00 0.00 69 1022.4
20240420050027 33 4 1.0 10.0 0.00 0.00 0.00 68 1022.3
20240420044527 34 274 3.0 8.0 0.00 0.00 0.00 69 1022.1
20240420043025 34 359 3.0 13.0 0.00 0.00 0.00 67 1022.5
20240420041530 34 346 3.0 9.0 0.00 0.00 0.00 66 1021.9
20240420040045 34 323 6.0 16.0 0.00 0.00 0.00 64 1021.8
20240420034522 35 262 2.0 8.0 0.00 0.00 0.00 63 1021.7
20240420033026 34 311 3.0 10.0 0.00 0.00 0.00 62 1021.7
20240420031521 34 252 3.0 11.0 0.00 0.00 0.00 62 1022.0
20240420030032 34 260 3.0 8.0 0.00 0.00 0.00 62 1021.7
20240420024518 34 250 1.0 7.0 0.00 0.00 0.00 61 1021.9
20240420023019 35 285 5.0 13.0 0.00 0.00 0.00 60 1021.3
20240420021517 35 278 4.0 12.0 0.00 0.00 0.00 59 1021.3
20240420020018 35 275 5.0 14.0 0.00 0.00 0.00 56 1021.5
20240420014516 36 306 4.0 14.0 0.00 0.00 0.00 55 1020.8
20240420013019 36 276 5.0 8.0 0.00 0.00 0.00 55 1021.0
20240420011516 36 226 5.0 10.0 0.00 0.00 0.00 54 1020.6
20240420010021 36 283 4.0 12.0 0.00 0.00 0.00 53 1020.5
20240420004521 36 311 3.0 11.0 0.00 0.00 0.00 53 1020.3
20240420003020 36 293 3.0 11.0 0.00 0.00 0.00 58 1020.3
20240420001512 36 288 3.0 10.0 0.00 0.00 0.00 57 1020.7
20240420000015 36 248 3.0 10.0 0.00 0.00 0.00 57 1020.4
20240419234510 36 262 2.0 10.0 0.00 0.00 0.00 54 1020.7
20240419233010 37 312 4.0 15.0 0.00 0.00 0.00 53 1020.4
20240419231509 36 303 5.0 14.0 0.00 0.00 0.00 54 1020.5
20240419230008 36 271 5.0 13.0 0.00 0.00 0.00 55 1020.8
20240419224509 36 304 3.0 13.0 0.00 0.00 0.00 55 1020.3
20240419223011 36 267 6.0 15.0 0.00 0.00 0.00 54 1020.6
20240419221505 36 305 4.0 15.0 0.00 0.00 0.00 54 1020.1
20240419220005 36 314 4.0 15.0 0.00 0.00 0.00 53 1020.3
20240419214509 37 307 6.0 12.0 0.00 0.00 0.00 52 1019.9
20240419213004 36 280 7.0 18.0 0.00 0.00 0.00 52 1019.8
20240419211504 37 298 5.0 15.0 0.00 0.00 0.00 53 1020.0
20240419210004 37 265 6.0 17.0 0.00 0.00 0.00 53 1019.8
20240419204502 36 290 6.0 16.0 0.00 0.00 0.00 52 1020.4
20240419203003 36 273 6.0 12.0 0.00 0.00 0.00 53 1020.0
20240419201502 36 292 6.0 11.0 0.00 0.00 0.00 54 1020.5
20240419200107 36 281 5.0 18.0 0.00 0.00 0.00 55 1020.4
20240419194603 36 257 7.0 22.0 0.00 0.00 0.00 55 1020.5
20240419193058 36 279 10.0 16.0 0.00 0.00 0.00 53 1020.2
20240419191558 36 257 7.0 19.0 0.00 0.00 0.00 53 1020.0
20240419190058 36 278 6.0 14.0 0.00 0.00 0.00 51 1020.3
20240419184603 36 307 6.0 16.0 0.00 0.00 0.00 52 1019.8
20240419183054 35 284 9.0 18.0 0.00 0.00 0.00 54 1020.0
20240419181554 35 297 5.0 19.0 0.00 0.00 0.00 55 1019.6
20240419180051 35 276 7.0 14.0 0.00 0.00 0.00 56 1020.0
20240419174557 35 290 6.0 16.0 0.00 0.00 0.00 58 1019.7
20240419173050 36 278 6.0 14.0 0.00 0.00 0.00 56 1019.6
20240419171550 35 270 7.0 17.0 0.00 0.00 0.00 58 1019.7
20240419170048 35 323 5.0 19.0 0.00 0.00 0.00 56 1019.6
20240419164547 35 290 8.0 18.0 0.00 0.00 0.00 55 1020.0
20240419163051 34 245 4.0 13.0 0.00 0.00 0.00 59 1019.6
20240419161546 34 283 4.0 14.0 0.00 0.00 0.00 58 1019.7
20240419160044 34 288 7.0 13.0 0.00 0.00 0.00 56 1019.4
20240419154543 34 263 5.0 14.0 0.00 0.00 0.00 57 1019.4
20240419153043 34 295 8.0 13.0 0.00 0.00 0.00 56 1019.2
20240419151544 35 316 4.0 12.0 0.00 0.00 0.00 57 1019.0
20240419150039 35 299 6.0 13.0 0.00 0.00 0.00 56 1019.3
20240419144540 35 229 6.0 15.0 0.00 0.00 0.00 58 1018.6
20240419143038 35 208 3.0 13.0 0.00 0.00 0.00 60 1018.7
20240419141536 35 235 7.0 19.0 0.00 0.00 0.00 57 1018.4
20240419140043 35 254 4.0 14.0 0.00 0.00 0.00 60 1018.4
20240419134548 35 260 7.0 15.0 0.00 0.00 0.00 60 1018.7
20240419133034 35 243 3.0 15.0 0.00 0.00 0.00 64 1018.1
20240419131535 35 277 5.0 13.0 0.00 0.00 0.00 69 1018.2
20240419130032 34 248 5.0 13.0 0.00 0.00 0.00 74 1018.1
20240419124532 34 233 5.0 12.0 0.00 0.00 0.00 76 1017.9
20240419123032 33 251 5.0 10.0 0.00 0.00 0.00 77 1017.8
20240419121534 33 262 2.0 8.0 0.00 0.00 0.00 78 1017.9
20240419120029 33 288 3.0 10.0 0.00 0.00 0.00 77 1018.1
20240419114529 33 238 4.0 7.0 0.00 0.00 0.00 77 1017.7
20240419113028 32 245 4.0 8.0 0.00 0.00 0.00 75 1017.5
20240419111528 32 263 1.0 7.0 0.00 0.00 0.00 75 1017.4
20240419110021 32 265 1.0 6.0 0.00 0.00 0.00 75 1017.5
20240419104520 32 236 3.0 8.0 0.00 0.00 0.00 74 1017.9
20240419103018 32 255 2.0 5.0 0.00 0.00 0.00 73 1017.6
20240419101516 32 239 2.0 4.0 0.00 0.00 0.00 73 1017.8
20240419100015 32 239 0.0 3.0 0.00 0.00 0.00 69 1017.7